�������l�o���
Date,Time,MP-1(��Sv/h),MP-2(��Sv/h),MP-3(��Sv/h),MP-4(��Sv/h),MP-5(��Sv/h),MP-6(��Sv/h),MP-7(��Sv/h),MP-8(��Sv/h),����,����(m/s),���J
2021/01/30,00:00,0.661,0.941,0.603,1.190,0.838,0.376,0.668,0.629,��,7.7,��
2021/01/30,00:10,0.661,0.941,0.602,1.193,0.837,0.377,0.669,0.629,���쐼,6.6,��
2021/01/30,00:20,0.661,0.941,0.602,1.192,0.838,0.376,0.668,0.629,��,5.8,��
2021/01/30,00:30,0.662,0.940,0.603,1.192,0.837,0.376,0.670,0.630,��,6.5,��
2021/01/30,00:40,0.661,0.939,0.603,1.192,0.837,0.378,0.667,0.630,��,6.8,��
2021/01/30,00:50,0.662,0.941,0.603,1.194,0.835,0.377,0.668,0.629,��,9.4,��
2021/01/30,01:00,0.660,0.940,0.604,1.193,0.836,0.376,0.668,0.630,��,9.0,��
2021/01/30,01:10,0.658,0.941,0.603,1.197,0.839,0.378,0.667,0.631,��,10.0,��
2021/01/30,01:20,0.662,0.940,0.601,1.192,0.835,0.377,0.668,0.629,��,9.1,��
2021/01/30,01:30,0.662,0.941,0.603,1.195,0.835,0.376,0.670,0.629,��,10.6,��
2021/01/30,01:40,0.662,0.940,0.603,1.195,0.836,0.377,0.669,0.631,��,7.1,��
2021/01/30,01:50,0.660,0.941,0.602,1.193,0.837,0.376,0.669,0.628,��,7.5,��
2021/01/30,02:00,0.660,0.942,0.605,1.196,0.834,0.376,0.668,0.629,���k��,10.5,��
2021/01/30,02:10,0.661,0.942,0.604,1.194,0.838,0.377,0.669,0.629,��,8.3,��
2021/01/30,02:20,0.661,0.941,0.603,1.195,0.835,0.377,0.668,0.629,��,10.0,��
2021/01/30,02:30,0.661,0.941,0.601,1.195,0.835,0.376,0.668,0.630,��,10.3,��
2021/01/30,02:40,0.662,0.939,0.602,1.195,0.836,0.376,0.669,0.628,��,11.1,��
2021/01/30,02:50,0.659,0.939,0.602,1.193,0.838,0.375,0.668,0.629,��,12.5,��
2021/01/30,03:00,0.661,0.939,0.602,1.194,0.836,0.374,0.670,0.629,��,12.4,��
2021/01/30,03:10,0.661,0.937,0.602,1.193,0.834,0.376,0.669,0.628,��,11.7,��
2021/01/30,03:20,0.659,0.938,0.602,1.196,0.833,0.376,0.668,0.630,��,11.0,��
2021/01/30,03:30,0.659,0.938,0.602,1.191,0.835,0.375,0.668,0.629,��,13.0,��
2021/01/30,03:40,0.660,0.939,0.602,1.195,0.835,0.375,0.670,0.630,��,12.4,��
2021/01/30,03:50,0.659,0.939,0.602,1.195,0.834,0.375,0.667,0.630,��,13.0,��
2021/01/30,04:00,0.659,0.939,0.602,1.194,0.833,0.376,0.669,0.628,��,12.0,��
2021/01/30,04:10,0.658,0.940,0.601,1.193,0.832,0.374,0.668,0.630,��,10.0,��
2021/01/30,04:20,0.660,0.938,0.603,1.193,0.836,0.376,0.669,0.629,��,11.8,��
2021/01/30,04:30,0.660,0.941,0.603,1.194,0.833,0.377,0.668,0.630,��,8.6,��
2021/01/30,04:40,0.658,0.941,0.603,1.195,0.834,0.376,0.669,0.630,���k��,10.9,��
2021/01/30,04:50,0.659,0.941,0.603,1.195,0.838,0.376,0.668,0.629,��,10.7,��
2021/01/30,05:00,0.657,0.941,0.604,1.193,0.837,0.375,0.667,0.629,��,12.4,��
2021/01/30,05:10,0.660,0.942,0.603,1.194,0.835,0.376,0.668,0.630,��,15.2,��
2021/01/30,05:20,0.660,0.943,0.605,1.195,0.837,0.376,0.666,0.628,��,11.4,��
2021/01/30,05:30,0.659,0.942,0.604,1.196,0.837,0.376,0.667,0.627,��,11.3,��
2021/01/30,05:40,0.660,0.940,0.604,1.194,0.838,0.377,0.668,0.629,��,11.6,��
2021/01/30,05:50,0.659,0.941,0.603,1.192,0.835,0.375,0.665,0.628,��,12.4,��
2021/01/30,06:00,0.660,0.943,0.602,1.192,0.834,0.375,0.666,0.629,��,14.1,��
2021/01/30,06:10,0.659,0.940,0.604,1.195,0.837,0.377,0.667,0.629,��,13.3,��
2021/01/30,06:20,0.658,0.940,0.604,1.195,0.837,0.375,0.665,0.630,��,10.4,��
2021/01/30,06:30,0.659,0.941,0.604,1.195,0.836,0.375,0.664,0.629,��,10.0,��
2021/01/30,06:40,0.661,0.944,0.604,1.193,0.836,0.375,0.666,0.630,���k��,10.9,��
2021/01/30,06:50,0.657,0.942,0.603,1.195,0.835,0.374,0.665,0.629,���k��,9.0,��
2021/01/30,07:00,0.658,0.942,0.603,1.194,0.835,0.376,0.667,0.630,���k��,10.0,��
2021/01/30,07:10,0.659,0.943,0.603,1.195,0.835,0.377,0.667,0.628,��,9.4,��
2021/01/30,07:20,0.660,0.944,0.606,1.195,0.836,0.375,0.666,0.629,��,10.6,��
2021/01/30,07:30,0.661,0.942,0.605,1.195,0.837,0.376,0.668,0.631,��,10.2,��
2021/01/30,07:40,0.659,0.941,0.603,1.194,0.836,0.376,0.667,0.629,��,9.5,��
2021/01/30,07:50,0.660,0.942,0.605,1.197,0.836,0.375,0.667,0.629,��,8.3,��
2021/01/30,08:00,0.659,0.942,0.604,1.195,0.837,0.376,0.668,0.629,��,8.5,��
2021/01/30,08:10,0.659,0.942,0.603,1.195,0.836,0.378,0.669,0.630,��,9.6,��
2021/01/30,08:20,0.659,0.942,0.604,1.194,0.836,0.376,0.667,0.629,���k��,9.4,��
2021/01/30,08:30,0.658,0.939,0.603,1.197,0.836,0.375,0.668,0.630,��,8.7,��
2021/01/30,08:40,0.658,0.939,0.604,1.197,0.837,0.376,0.670,0.629,��,10.3,��
2021/01/30,08:50,0.661,0.941,0.602,1.195,0.838,0.375,0.668,0.630,��,9.4,��
2021/01/30,09:00,0.660,0.943,0.605,1.197,0.836,0.376,0.667,0.627,���k��,8.6,��
2021/01/30,09:10,0.660,0.943,0.603,1.196,0.838,0.376,0.667,0.629,���k��,10.5,��
2021/01/30,09:20,0.660,0.944,0.602,1.196,0.838,0.375,0.669,0.630,���k��,10.5,��
2021/01/30,09:30,0.661,0.945,0.604,1.196,0.840,0.377,0.668,0.628,���k��,10.9,��
2021/01/30,09:40,0.660,0.942,0.604,1.197,0.839,0.376,0.669,0.629,��,7.7,��
2021/01/30,09:50,0.661,0.942,0.604,1.194,0.838,0.375,0.667,0.630,��,10.0,��
2021/01/30,10:00,0.660,0.943,0.604,1.197,0.840,0.376,0.667,0.629,���k��,12.0,��
2021/01/30,10:10,0.663,0.940,0.604,1.198,0.838,0.379,0.670,0.630,���k��,10.5,��
2021/01/30,10:20,0.663,0.943,0.606,1.196,0.837,0.376,0.668,0.629,���k��,7.6,��
2021/01/30,10:30,0.662,0.944,0.603,1.198,0.838,0.375,0.668,0.628,���k��,9.5,��
2021/01/30,10:40,0.662,0.944,0.605,1.196,0.840,0.377,0.667,0.631,���k��,10.2,��
2021/01/30,10:50,0.662,0.944,0.605,1.197,0.838,0.377,0.669,0.630,��,8.7,��
2021/01/30,11:00,0.662,0.946,0.604,1.198,0.840,0.377,0.668,0.631,��,13.1,��
2021/01/30,11:10,0.661,0.943,0.606,1.198,0.838,0.375,0.668,0.630,��,12.4,��
2021/01/30,11:20,0.664,0.945,0.605,1.200,0.840,0.376,0.667,0.629,��,12.7,��
2021/01/30,11:30,0.663,0.946,0.605,1.197,0.840,0.376,0.668,0.631,��,7.8,��
2021/01/30,11:40,0.662,0.945,0.605,1.199,0.840,0.377,0.668,0.630,���k��,8.9,��
2021/01/30,11:50,0.663,0.946,0.605,1.196,0.840,0.376,0.668,0.629,��,9.5,��
2021/01/30,12:00,0.662,0.946,0.606,1.198,0.841,0.376,0.668,0.630,�k��,6.5,��
2021/01/30,12:10,0.662,0.946,0.607,1.198,0.841,0.376,0.668,0.632,�k��,10.6,��
2021/01/30,12:20,0.663,0.944,0.604,1.199,0.844,0.376,0.668,0.630,���k��,8.7,��
2021/01/30,12:30,0.662,0.948,0.606,1.198,0.841,0.376,0.668,0.630,���k��,9.7,��
2021/01/30,12:40,0.664,0.945,0.606,1.198,0.843,0.375,0.668,0.629,���k��,12.0,��
2021/01/30,12:50,0.663,0.948,0.606,1.200,0.842,0.376,0.667,0.631,���k��,11.8,��
2021/01/30,13:00,0.663,0.945,0.604,1.197,0.841,0.376,0.667,0.632,���k��,8.4,��
2021/01/30,13:10,0.661,0.946,0.601,1.200,0.841,0.378,0.667,0.631,���k��,9.2,��
2021/01/30,13:20,0.663,0.946,0.604,1.198,0.844,0.377,0.667,0.630,���k��,8.6,��
2021/01/30,13:30,0.664,0.948,0.604,1.198,0.841,0.376,0.667,0.631,���k��,12.1,��
2021/01/30,13:40,0.662,0.944,0.605,1.200,0.840,0.377,0.668,0.630,���k��,11.7,��
2021/01/30,13:50,0.662,0.948,0.605,1.199,0.841,0.376,0.670,0.631,�k��,10.5,��
2021/01/30,14:00,0.663,0.950,0.605,1.199,0.840,0.375,0.669,0.631,���k��,9.7,��
2021/01/30,14:10,0.664,0.947,0.603,1.200,0.840,0.376,0.667,0.629,���k��,9.6,��
2021/01/30,14:20,0.663,0.946,0.603,1.197,0.841,0.375,0.668,0.629,���k��,9.7,��
2021/01/30,14:30,0.661,0.947,0.604,1.199,0.840,0.375,0.667,0.631,�k��,10.2,��
2021/01/30,14:40,0.662,0.949,0.604,1.199,0.843,0.376,0.668,0.632,���k��,10.2,��
2021/01/30,14:50,0.662,0.947,0.603,1.202,0.843,0.375,0.669,0.630,���k��,9.6,��
2021/01/30,15:00,0.664,0.949,0.602,1.199,0.843,0.376,0.669,0.630,���k��,11.1,��
2021/01/30,15:10,0.664,0.947,0.607,1.201,0.843,0.377,0.668,0.630,���k��,9.0,��
2021/01/30,15:20,0.664,0.949,0.606,1.200,0.844,0.375,0.667,0.630,���k��,10.6,��
2021/01/30,15:30,0.663,0.946,0.604,1.199,0.843,0.375,0.669,0.630,���k��,8.4,��
2021/01/30,15:40,0.664,0.947,0.604,1.201,0.843,0.375,0.668,0.628,���k��,8.8,��
2021/01/30,15:50,0.661,0.951,0.605,1.199,0.841,0.377,0.667,0.628,���k��,6.7,��
2021/01/30,16:00,0.663,0.948,0.604,1.200,0.843,0.376,0.670,0.629,���k��,6.8,��
2021/01/30,16:10,0.663,0.951,0.604,1.202,0.842,0.376,0.668,0.629,���k��,5.3,��
2021/01/30,16:20,0.660,0.947,0.604,1.201,0.844,0.377,0.668,0.629,���k��,6.8,��
2021/01/30,16:30,0.662,0.948,0.603,1.198,0.843,0.377,0.669,0.629,���k��,5.8,��
2021/01/30,16:40,0.661,0.946,0.604,1.200,0.844,0.376,0.666,0.629,���k��,5.9,��
2021/01/30,16:50,0.659,0.950,0.605,1.200,0.842,0.376,0.669,0.630,���k��,5.1,��
2021/01/30,17:00,0.661,0.945,0.603,1.200,0.843,0.376,0.667,0.628,���k��,4.2,��
2021/01/30,17:10,0.659,0.946,0.604,1.197,0.842,0.377,0.668,0.630,���k��,2.9,��
2021/01/30,17:20,0.660,0.948,0.602,1.200,0.844,0.377,0.667,0.630,��,2.0,��
2021/01/30,17:30,0.660,0.949,0.605,1.197,0.842,0.377,0.667,0.628,�k�k��,0.6,��
2021/01/30,17:40,0.662,0.947,0.604,1.198,0.841,0.377,0.667,0.631,�k�k��,0.9,��
2021/01/30,17:50,0.660,0.948,0.604,1.197,0.841,0.375,0.667,0.628,�k�k��,2.3,��
2021/01/30,18:00,0.658,0.948,0.604,1.197,0.841,0.375,0.668,0.628,�k,2.0,��
2021/01/30,18:10,0.663,0.948,0.602,1.196,0.841,0.375,0.665,0.629,�k,1.9,��
2021/01/30,18:20,0.659,0.947,0.603,1.200,0.842,0.375,0.666,0.629,�k,2.2,��
2021/01/30,18:30,0.660,0.946,0.604,1.198,0.841,0.375,0.667,0.627,�k�k��,1.5,��
2021/01/30,18:40,0.660,0.947,0.603,1.197,0.842,0.375,0.666,0.630,�k�k��,1.1,��
2021/01/30,18:50,0.660,0.948,0.604,1.197,0.842,0.377,0.667,0.629,-,CALM,��
2021/01/30,19:00,0.660,0.948,0.604,1.196,0.842,0.375,0.666,0.631,�k��,0.8,��
2021/01/30,19:10,0.661,0.947,0.602,1.197,0.841,0.376,0.666,0.629,�k�k��,1.2,��
2021/01/30,19:20,0.660,0.946,0.603,1.198,0.842,0.375,0.665,0.630,�k,1.2,��
2021/01/30,19:30,0.660,0.946,0.603,1.197,0.840,0.375,0.665,0.629,�k��,1.1,��
2021/01/30,19:40,0.659,0.946,0.603,1.199,0.844,0.375,0.665,0.628,���쐼,1.2,��
2021/01/30,19:50,0.661,0.946,0.604,1.196,0.841,0.375,0.668,0.628,���쐼,0.9,��
2021/01/30,20:00,0.660,0.946,0.603,1.200,0.841,0.375,0.666,0.629,���쐼,1.2,��
2021/01/30,20:10,0.661,0.946,0.604,1.197,0.842,0.374,0.665,0.628,��,1.9,��
2021/01/30,20:20,0.662,0.946,0.603,1.195,0.842,0.375,0.667,0.628,���쐼,1.5,��
2021/01/30,20:30,0.660,0.944,0.604,1.199,0.841,0.374,0.666,0.628,�쐼,2.9,��
2021/01/30,20:40,0.661,0.945,0.602,1.195,0.842,0.376,0.667,0.629,���쐼,3.1,��
2021/01/30,20:50,0.660,0.948,0.603,1.198,0.840,0.376,0.666,0.629,���쐼,3.7,��
2021/01/30,21:00,0.662,0.944,0.604,1.198,0.840,0.375,0.665,0.629,�쐼,2.6,��
2021/01/30,21:10,0.662,0.945,0.605,1.198,0.840,0.375,0.666,0.628,��쐼,3.3,��
2021/01/30,21:20,0.660,0.945,0.604,1.197,0.841,0.375,0.666,0.630,��,3.4,��
2021/01/30,21:30,0.661,0.945,0.604,1.197,0.841,0.375,0.666,0.629,��,3.7,��
2021/01/30,21:40,0.659,0.946,0.605,1.199,0.841,0.375,0.667,0.628,��,3.9,��
2021/01/30,21:50,0.659,0.947,0.601,1.196,0.840,0.376,0.667,0.628,��,3.7,��
2021/01/30,22:00,0.659,0.943,0.602,1.197,0.840,0.376,0.664,0.629,��쓌,3.8,��
2021/01/30,22:10,0.661,0.946,0.602,1.196,0.840,0.376,0.666,0.628,��,3.7,��
2021/01/30,22:20,0.660,0.945,0.605,1.199,0.841,0.376,0.666,0.629,��,4.3,��
2021/01/30,22:30,0.660,0.945,0.604,1.199,0.839,0.376,0.667,0.629,��,3.4,��
2021/01/30,22:40,0.661,0.945,0.603,1.196,0.840,0.375,0.667,0.627,��,3.4,��
2021/01/30,22:50,0.659,0.943,0.602,1.198,0.840,0.375,0.667,0.629,��쐼,2.9,��
2021/01/30,23:00,0.660,0.945,0.603,1.198,0.840,0.376,0.666,0.629,��,2.6,��
2021/01/30,23:10,0.660,0.947,0.604,1.197,0.841,0.376,0.667,0.627,��,2.8,��
2021/01/30,23:20,0.662,0.945,0.605,1.197,0.840,0.376,0.665,0.629,��쐼,4.2,��
2021/01/30,23:30,0.661,0.944,0.605,1.197,0.840,0.376,0.667,0.628,��쐼,4.1,��
2021/01/30,23:40,0.662,0.945,0.603,1.198,0.840,0.376,0.666,0.629,��쐼,3.4,��
2021/01/30,23:50,0.661,0.943,0.603,1.198,0.839,0.375,0.666,0.630,�쐼,3.1,��
